Time,TemperatureF,DewpointF,PressureIn,WindDirection,WindDirectionDegrees,WindSpeedMPH,WindSpeedGustMPH,Humidity,HourlyPrecipIn,Conditions,Clouds,dailyrainin,SoftwareType,DateUTC
2013-02-19 00:01:00,28.3,18.4,30.11,NW,307,0.0,0.0,66,0.00,,,0.00,Wunderground v.1.15,2013-02-19 06:01:00,
2013-02-19 00:07:00,28.2,18.6,30.11,NW,307,0.0,1.0,67,0.00,,,0.00,Wunderground v.1.15,2013-02-19 06:07:00,
2013-02-19 00:12:00,28.2,18.3,30.11,NW,307,0.0,1.0,66,0.00,,,0.00,Wunderground v.1.15,2013-02-19 06:12:00,
2013-02-19 00:17:00,28.1,18.2,30.11,WNW,298,1.0,1.0,66,0.00,,,0.00,Wunderground v.1.15,2013-02-19 06:17:00,
2013-02-19 00:24:00,28.1,18.2,30.12,WNW,284,0.0,1.0,66,0.00,,,0.00,Wunderground v.1.15,2013-02-19 06:24:00,
2013-02-19 00:30:00,28.1,18.5,30.12,WNW,284,0.0,1.0,67,0.00,,,0.00,Wunderground v.1.15,2013-02-19 06:30:00,
2013-02-19 00:35:00,28.1,18.2,30.12,WNW,286,0.0,2.0,66,0.00,,,0.00,Wunderground v.1.15,2013-02-19 06:35:00,
2013-02-19 00:41:00,28.0,18.5,30.12,WNW,286,0.0,1.0,67,0.00,,,0.00,Wunderground v.1.15,2013-02-19 06:41:00,
2013-02-19 00:46:00,28.0,18.5,30.12,WNW,285,0.0,1.0,67,0.00,,,0.00,Wunderground v.1.15,2013-02-19 06:46:00,
2013-02-19 00:52:00,28.1,18.2,30.12,NW,317,1.0,1.0,66,0.00,,,0.00,Wunderground v.1.15,2013-02-19 06:52:00,
2013-02-19 00:58:00,28.1,18.5,30.12,NW,308,1.0,1.0,67,0.00,,,0.00,Wunderground v.1.15,2013-02-19 06:58:00,
2013-02-19 01:03:00,28.1,18.2,30.12,NW,308,0.0,1.0,66,0.00,,,0.00,Wunderground v.1.15,2013-02-19 07:03:00,
2013-02-19 01:09:00,28.1,18.2,30.12,WSW,253,0.0,1.0,66,0.00,,,0.00,Wunderground v.1.15,2013-02-19 07:09:00,
2013-02-19 01:15:00,28.1,18.2,30.12,WNW,296,1.0,1.0,66,0.00,,,0.00,Wunderground v.1.15,2013-02-19 07:15:00,
2013-02-19 01:20:00,28.0,18.1,30.12,WNW,296,1.0,1.0,66,0.00,,,0.00,Wunderground v.1.15,2013-02-19 07:20:00,
2013-02-19 01:26:00,27.9,18.0,30.13,WNW,296,0.0,1.0,66,0.00,,,0.00,Wunderground v.1.15,2013-02-19 07:26:00,
2013-02-19 01:31:00,27.8,17.9,30.13,West,263,3.0,3.0,66,0.00,,,0.00,Wunderground v.1.15,2013-02-19 07:31:00,
2013-02-19 01:37:00,27.8,17.9,30.13,West,270,0.0,3.0,66,0.00,,,0.00,Wunderground v.1.15,2013-02-19 07:37:00,
2013-02-19 01:43:00,27.7,17.8,30.13,West,268,0.0,1.0,66,0.00,,,0.00,Wunderground v.1.15,2013-02-19 07:43:00,
2013-02-19 01:48:00,27.7,17.8,30.13,WSW,256,1.0,1.0,66,0.00,,,0.00,Wunderground v.1.15,2013-02-19 07:48:00,
2013-02-19 01:53:00,27.5,18.0,30.14,West,275,0.0,1.0,67,0.00,,,0.00,Wunderground v.1.15,2013-02-19 07:53:00,
2013-02-19 01:59:00,27.4,17.9,30.14,West,264,1.0,2.0,67,0.00,,,0.00,Wunderground v.1.15,2013-02-19 07:59:00,
2013-02-19 02:04:00,27.4,17.9,30.15,WSW,251,0.0,3.0,67,0.00,,,0.00,Wunderground v.1.15,2013-02-19 08:04:00,
2013-02-19 02:09:00,27.2,17.7,30.15,WSW,254,1.0,3.0,67,0.00,,,0.00,Wunderground v.1.15,2013-02-19 08:09:00,
2013-02-19 02:14:00,27.1,17.6,30.15,West,279,2.0,4.0,67,0.00,,,0.00,Wunderground v.1.15,2013-02-19 08:14:00,
2013-02-19 02:19:00,27.0,17.8,30.15,WSW,254,2.0,4.0,68,0.00,,,0.00,Wunderground v.1.15,2013-02-19 08:19:00,
2013-02-19 02:24:00,26.9,17.7,30.15,WNW,300,1.0,3.0,68,0.00,,,0.00,Wunderground v.1.15,2013-02-19 08:24:00,
2013-02-19 02:29:00,26.9,17.7,30.16,West,275,1.0,3.0,68,0.00,,,0.00,Wunderground v.1.15,2013-02-19 08:29:00,
2013-02-19 02:34:00,26.9,17.7,30.16,WSW,244,0.0,3.0,68,0.00,,,0.00,Wunderground v.1.15,2013-02-19 08:34:00,
2013-02-19 02:39:00,26.7,17.6,30.16,WSW,253,1.0,3.0,68,0.00,,,0.00,Wunderground v.1.15,2013-02-19 08:39:00,
2013-02-19 02:44:00,26.7,17.6,30.16,NW,309,1.0,3.0,68,0.00,,,0.00,Wunderground v.1.15,2013-02-19 08:44:00,
2013-02-19 02:49:00,26.7,17.9,30.17,West,277,2.0,3.0,69,0.00,,,0.00,Wunderground v.1.15,2013-02-19 08:49:00,
2013-02-19 02:54:00,26.7,17.9,30.17,West,267,0.0,5.0,69,0.00,,,0.00,Wunderground v.1.15,2013-02-19 08:54:00,
2013-02-19 02:59:00,26.9,17.7,30.16,WNW,285,1.0,5.0,68,0.00,,,0.00,Wunderground v.1.15,2013-02-19 08:59:00,
2013-02-19 03:04:00,26.9,17.7,30.17,West,265,1.0,4.0,68,0.00,,,0.00,Wunderground v.1.15,2013-02-19 09:04:00,
2013-02-19 03:09:00,26.9,17.7,30.17,West,281,1.0,4.0,68,0.00,,,0.00,Wunderground v.1.15,2013-02-19 09:09:00,
2013-02-19 03:14:00,26.9,17.7,30.17,West,267,1.0,5.0,68,0.00,,,0.00,Wunderground v.1.15,2013-02-19 09:14:00,
2013-02-19 03:19:00,26.8,17.6,30.17,NW,315,0.0,5.0,68,0.00,,,0.00,Wunderground v.1.15,2013-02-19 09:19:00,
2013-02-19 03:24:00,26.7,17.9,30.16,WNW,282,1.0,4.0,69,0.00,,,0.00,Wunderground v.1.15,2013-02-19 09:24:00,
2013-02-19 03:29:00,26.5,17.7,30.17,WNW,286,4.0,4.0,69,0.00,,,0.00,Wunderground v.1.15,2013-02-19 09:29:00,
2013-02-19 03:34:00,26.4,17.6,30.17,West,269,2.0,4.0,69,0.00,,,0.00,Wunderground v.1.15,2013-02-19 09:34:00,
2013-02-19 03:39:00,26.3,17.5,30.17,NW,304,2.0,4.0,69,0.00,,,0.00,Wunderground v.1.15,2013-02-19 09:39:00,
2013-02-19 03:44:00,26.2,17.7,30.17,WNW,299,0.0,2.0,70,0.00,,,0.00,Wunderground v.1.15,2013-02-19 09:44:00,
2013-02-19 03:49:00,26.1,17.6,30.17,West,262,1.0,3.0,70,0.00,,,0.00,Wunderground v.1.15,2013-02-19 09:49:00,
2013-02-19 03:54:00,26.0,17.6,30.17,West,274,1.0,3.0,70,0.00,,,0.00,Wunderground v.1.15,2013-02-19 09:54:00,
2013-02-19 03:59:00,25.9,17.5,30.17,NW,307,0.0,3.0,70,0.00,,,0.00,Wunderground v.1.15,2013-02-19 09:59:00,
2013-02-19 04:04:00,25.8,17.4,30.18,West,281,1.0,4.0,70,0.00,,,0.00,Wunderground v.1.15,2013-02-19 10:04:00,
2013-02-19 04:09:00,25.7,17.3,30.18,West,278,2.0,4.0,70,0.00,,,0.00,Wunderground v.1.15,2013-02-19 10:09:00,
2013-02-19 04:14:00,25.6,17.5,30.18,West,277,1.0,3.0,71,0.00,,,0.00,Wunderground v.1.15,2013-02-19 10:14:00,
2013-02-19 04:19:00,25.4,17.3,30.18,West,269,0.0,5.0,71,0.00,,,0.00,Wunderground v.1.15,2013-02-19 10:19:00,
2013-02-19 04:24:00,25.3,17.2,30.19,West,267,1.0,5.0,71,0.00,,,0.00,Wunderground v.1.15,2013-02-19 10:24:00,
2013-02-19 04:29:00,25.2,17.4,30.19,WNW,298,1.0,8.0,72,0.00,,,0.00,Wunderground v.1.15,2013-02-19 10:29:00,
2013-02-19 04:34:00,25.2,17.4,30.19,SW,226,4.0,4.0,72,0.00,,,0.00,Wunderground v.1.15,2013-02-19 10:34:00,
2013-02-19 04:39:00,25.1,17.3,30.19,WSW,254,1.0,4.0,72,0.00,,,0.00,Wunderground v.1.15,2013-02-19 10:39:00,
2013-02-19 04:44:00,25.2,17.1,30.19,West,269,1.0,3.0,71,0.00,,,0.00,Wunderground v.1.15,2013-02-19 10:44:00,
2013-02-19 04:49:00,25.2,17.1,30.20,NW,320,1.0,3.0,71,0.00,,,0.00,Wunderground v.1.15,2013-02-19 10:49:00,
2013-02-19 04:54:00,25.3,17.2,30.20,WSW,247,0.0,4.0,71,0.00,,,0.00,Wunderground v.1.15,2013-02-19 10:54:00,
2013-02-19 04:59:00,25.3,17.2,30.20,West,274,1.0,4.0,71,0.00,,,0.00,Wunderground v.1.15,2013-02-19 10:59:00,
2013-02-19 05:04:00,25.3,17.2,30.20,West,276,0.0,5.0,71,0.00,,,0.00,Wunderground v.1.15,2013-02-19 11:04:00,
2013-02-19 05:09:00,25.3,17.2,30.21,West,275,1.0,5.0,71,0.00,,,0.00,Wunderground v.1.15,2013-02-19 11:09:00,
2013-02-19 05:14:00,25.3,17.2,30.21,WSW,248,1.0,5.0,71,0.00,,,0.00,Wunderground v.1.15,2013-02-19 11:14:00,
2013-02-19 05:19:00,25.3,17.2,30.22,WSW,250,1.0,5.0,71,0.00,,,0.00,Wunderground v.1.15,2013-02-19 11:19:00,
2013-02-19 05:24:00,25.3,17.2,30.21,WSW,252,1.0,4.0,71,0.00,,,0.00,Wunderground v.1.15,2013-02-19 11:24:00,
2013-02-19 05:29:00,25.2,17.1,30.22,West,275,2.0,4.0,71,0.00,,,0.00,Wunderground v.1.15,2013-02-19 11:29:00,
2013-02-19 05:34:00,25.1,17.0,30.22,NNW,348,5.0,5.0,71,0.00,,,0.00,Wunderground v.1.15,2013-02-19 11:34:00,
2013-02-19 05:39:00,25.1,17.3,30.22,WSW,255,2.0,5.0,72,0.00,,,0.00,Wunderground v.1.15,2013-02-19 11:39:00,
2013-02-19 05:44:00,25.1,17.3,30.22,West,276,1.0,8.0,72,0.00,,,0.00,Wunderground v.1.15,2013-02-19 11:44:00,
2013-02-19 05:49:00,25.1,17.3,30.22,WSW,253,0.0,8.0,72,0.00,,,0.00,Wunderground v.1.15,2013-02-19 11:49:00,
2013-02-19 05:54:00,25.1,17.3,30.23,SW,225,1.0,9.0,72,0.00,,,0.00,Wunderground v.1.15,2013-02-19 11:54:00,
2013-02-19 05:59:00,25.1,17.3,30.23,SW,235,0.0,9.0,72,0.00,,,0.00,Wunderground v.1.15,2013-02-19 11:59:00,
2013-02-19 06:04:00,25.1,17.3,30.23,WSW,240,0.0,4.0,72,0.00,,,0.00,Wunderground v.1.15,2013-02-19 12:04:00,
2013-02-19 06:09:00,25.0,17.2,30.24,West,269,1.0,4.0,72,0.00,,,0.00,Wunderground v.1.15,2013-02-19 12:09:00,
2013-02-19 06:14:00,24.9,17.1,30.24,West,259,2.0,9.0,72,0.00,,,0.00,Wunderground v.1.15,2013-02-19 12:14:00,
2013-02-19 06:19:00,24.8,17.1,30.24,West,260,1.0,9.0,72,0.00,,,0.00,Wunderground v.1.15,2013-02-19 12:19:00,
2013-02-19 06:24:00,24.7,17.0,30.25,NNW,328,1.0,4.0,72,0.00,,,0.00,Wunderground v.1.15,2013-02-19 12:24:00,
2013-02-19 06:29:00,24.5,16.8,30.25,SW,232,1.0,4.0,72,0.00,,,0.00,Wunderground v.1.15,2013-02-19 12:29:00,
2013-02-19 06:34:00,24.5,17.1,30.25,WSW,248,5.0,5.0,73,0.00,,,0.00,Wunderground v.1.15,2013-02-19 12:34:00,
2013-02-19 06:39:00,24.4,17.0,30.25,WNW,296,1.0,6.0,73,0.00,,,0.00,Wunderground v.1.15,2013-02-19 12:39:00,
2013-02-19 06:44:00,24.4,17.3,30.25,West,279,2.0,6.0,74,0.00,,,0.00,Wunderground v.1.15,2013-02-19 12:44:00,
2013-02-19 06:49:00,24.3,17.2,30.25,NNW,344,1.0,6.0,74,0.00,,,0.00,Wunderground v.1.15,2013-02-19 12:49:00,
2013-02-19 06:54:00,24.3,17.2,30.25,WNW,296,1.0,3.0,74,0.00,,,0.00,Wunderground v.1.15,2013-02-19 12:54:00,
2013-02-19 06:59:00,24.1,17.0,30.26,NW,304,0.0,3.0,74,0.00,,,0.00,Wunderground v.1.15,2013-02-19 12:59:00,
2013-02-19 07:04:00,24.0,17.2,30.26,WNW,296,1.0,2.0,75,0.00,,,0.00,Wunderground v.1.15,2013-02-19 13:04:00,
2013-02-19 07:09:00,23.9,17.1,30.26,West,259,1.0,4.0,75,0.00,,,0.00,Wunderground v.1.15,2013-02-19 13:09:00,
2013-02-19 07:14:00,23.9,17.1,30.26,West,265,1.0,4.0,75,0.00,,,0.00,Wunderground v.1.15,2013-02-19 13:14:00,
2013-02-19 07:19:00,23.8,17.0,30.27,WNW,302,1.0,4.0,75,0.00,,,0.00,Wunderground v.1.15,2013-02-19 13:19:00,
2013-02-19 07:24:00,23.8,16.7,30.27,NE,36,1.0,5.0,74,0.00,,,0.00,Wunderground v.1.15,2013-02-19 13:24:00,
2013-02-19 07:29:00,23.8,16.7,30.28,WNW,300,2.0,5.0,74,0.00,,,0.00,Wunderground v.1.15,2013-02-19 13:29:00,
2013-02-19 07:34:00,23.9,16.8,30.28,WNW,297,1.0,2.0,74,0.00,,,0.00,Wunderground v.1.15,2013-02-19 13:34:00,
2013-02-19 07:39:00,24.1,17.0,30.27,WSW,257,1.0,3.0,74,0.00,,,0.00,Wunderground v.1.15,2013-02-19 13:39:00,
2013-02-19 07:44:00,24.3,16.9,30.28,West,272,1.0,2.0,73,0.00,,,0.00,Wunderground v.1.15,2013-02-19 13:44:00,
2013-02-19 07:49:00,24.7,17.3,30.28,WNW,287,1.0,2.0,73,0.00,,,0.00,Wunderground v.1.15,2013-02-19 13:49:00,
2013-02-19 07:54:00,25.1,17.3,30.29,West,280,1.0,4.0,72,0.00,,,0.00,Wunderground v.1.15,2013-02-19 13:54:00,
2013-02-19 07:59:00,25.5,17.4,30.29,West,275,1.0,4.0,71,0.00,,,0.00,Wunderground v.1.15,2013-02-19 13:59:00,
2013-02-19 08:04:00,25.6,17.2,30.29,North,355,1.0,3.0,70,0.00,,,0.00,Wunderground v.1.15,2013-02-19 14:04:00,
2013-02-19 08:09:00,25.8,17.4,30.30,NW,318,1.0,4.0,70,0.00,,,0.00,Wunderground v.1.15,2013-02-19 14:09:00,
2013-02-19 08:14:00,25.9,17.1,30.30,NW,317,2.0,4.0,69,0.00,,,0.00,Wunderground v.1.15,2013-02-19 14:14:00,
2013-02-19 08:19:00,26.0,15.8,30.30,WSW,238,4.0,6.0,65,0.00,,,0.00,Wunderground v.1.15,2013-02-19 14:19:00,
2013-02-19 08:24:00,25.9,15.0,30.30,WNW,284,3.0,10.0,63,0.00,,,0.00,Wunderground v.1.15,2013-02-19 14:24:00,
2013-02-19 08:29:00,25.9,14.7,30.30,East,101,3.0,10.0,62,0.00,,,0.00,Wunderground v.1.15,2013-02-19 14:29:00,
2013-02-19 08:34:00,26.1,14.5,30.30,SW,224,1.0,7.0,61,0.00,,,0.00,Wunderground v.1.15,2013-02-19 14:34:00,
2013-02-19 08:39:00,26.5,14.1,30.31,West,274,2.0,7.0,59,0.00,,,0.00,Wunderground v.1.15,2013-02-19 14:39:00,
2013-02-19 08:44:00,26.6,13.4,30.31,North,360,4.0,11.0,57,0.00,,,0.00,Wunderground v.1.15,2013-02-19 14:44:00,
2013-02-19 08:49:00,26.7,13.9,30.32,SSW,209,2.0,11.0,58,0.00,,,0.00,Wunderground v.1.15,2013-02-19 14:49:00,
2013-02-19 08:54:00,27.0,13.8,30.33,South,190,2.0,7.0,57,0.00,,,0.00,Wunderground v.1.15,2013-02-19 14:54:00,
2013-02-19 08:59:00,27.2,14.0,30.33,North,355,3.0,7.0,57,0.00,,,0.00,Wunderground v.1.15,2013-02-19 14:59:00,
2013-02-19 09:04:00,27.5,13.4,30.33,WNW,286,1.0,4.0,55,0.00,,,0.00,Wunderground v.1.15,2013-02-19 15:04:00,
2013-02-19 09:09:00,27.6,13.5,30.33,NW,315,3.0,10.0,55,0.00,,,0.00,Wunderground v.1.15,2013-02-19 15:09:00,
2013-02-19 09:14:00,27.7,13.2,30.33,WSW,249,3.0,6.0,54,0.00,,,0.00,Wunderground v.1.15,2013-02-19 15:14:00,
2013-02-19 09:19:00,27.9,13.0,30.33,WNW,294,4.0,8.0,53,0.00,,,0.00,Wunderground v.1.15,2013-02-19 15:19:00,
2013-02-19 09:24:00,28.3,12.9,30.34,SE,132,2.0,7.0,52,0.00,,,0.00,Wunderground v.1.15,2013-02-19 15:24:00,
2013-02-19 09:29:00,28.5,12.6,30.34,WSW,248,2.0,7.0,51,0.00,,,0.00,Wunderground v.1.15,2013-02-19 15:29:00,
2013-02-19 09:34:00,28.8,12.5,30.34,NNE,30,3.0,7.0,50,0.00,,,0.00,Wunderground v.1.15,2013-02-19 15:34:00,
2013-02-19 09:39:00,28.8,12.0,30.34,ESE,115,1.0,10.0,49,0.00,,,0.00,Wunderground v.1.15,2013-02-19 15:39:00,
2013-02-19 09:44:00,28.9,12.1,30.35,ENE,65,3.0,5.0,49,0.00,,,0.00,Wunderground v.1.15,2013-02-19 15:44:00,
2013-02-19 09:49:00,29.2,12.4,30.35,WSW,244,4.0,9.0,49,0.00,,,0.00,Wunderground v.1.15,2013-02-19 15:49:00,
2013-02-19 09:54:00,29.2,12.4,30.35,NW,319,2.0,7.0,49,0.00,,,0.00,Wunderground v.1.15,2013-02-19 15:54:00,
2013-02-19 09:59:00,29.5,12.2,30.35,SE,145,3.0,9.0,48,0.00,,,0.00,Wunderground v.1.15,2013-02-19 15:59:00,
2013-02-19 10:04:00,29.9,12.6,30.35,SW,233,3.0,5.0,48,0.00,,,0.00,Wunderground v.1.15,2013-02-19 16:04:00,
2013-02-19 10:09:00,30.4,13.0,30.35,West,268,2.0,7.0,48,0.00,,,0.00,Wunderground v.1.15,2013-02-19 16:09:00,
2013-02-19 10:14:00,31.1,12.7,30.35,NNE,17,3.0,7.0,46,0.00,,,0.00,Wunderground v.1.15,2013-02-19 16:14:00,
2013-02-19 10:19:00,31.0,12.1,30.35,WNW,284,2.0,7.0,45,0.00,,,0.00,Wunderground v.1.15,2013-02-19 16:19:00,
2013-02-19 10:24:00,31.0,12.1,30.35,WNW,290,2.0,7.0,45,0.00,,,0.00,Wunderground v.1.15,2013-02-19 16:24:00,
2013-02-19 10:29:00,31.3,11.9,30.35,North,10,3.0,7.0,44,0.00,,,0.00,Wunderground v.1.15,2013-02-19 16:29:00,
2013-02-19 10:34:00,31.6,12.2,30.36,WNW,284,2.0,7.0,44,0.00,,,0.00,Wunderground v.1.15,2013-02-19 16:34:00,
2013-02-19 10:39:00,31.7,11.7,30.36,West,278,2.0,8.0,43,0.00,,,0.00,Wunderground v.1.15,2013-02-19 16:39:00,
2013-02-19 10:44:00,32.3,12.3,30.36,North,355,1.0,4.0,43,0.00,,,0.00,Wunderground v.1.15,2013-02-19 16:44:00,
2013-02-19 10:49:00,32.8,11.6,30.36,WNW,286,1.0,7.0,41,0.00,,,0.00,Wunderground v.1.15,2013-02-19 16:49:00,
2013-02-19 10:54:00,33.4,12.7,30.36,West,259,2.0,4.0,42,0.00,,,0.00,Wunderground v.1.15,2013-02-19 16:54:00,
2013-02-19 10:59:00,33.2,11.5,30.36,West,270,2.0,7.0,40,0.00,,,0.00,Wunderground v.1.15,2013-02-19 16:59:00,
2013-02-19 11:04:00,33.2,10.3,30.36,WSW,238,2.0,6.0,38,0.00,,,0.00,Wunderground v.1.15,2013-02-19 17:04:00,
2013-02-19 11:09:00,33.1,10.2,30.36,WNW,292,1.0,7.0,38,0.00,,,0.00,Wunderground v.1.15,2013-02-19 17:09:00,
2013-02-19 11:14:00,33.3,10.4,30.36,North,355,1.0,5.0,38,0.00,,,0.00,Wunderground v.1.15,2013-02-19 17:14:00,
2013-02-19 11:19:00,33.6,10.1,30.36,ENE,67,2.0,5.0,37,0.00,,,0.00,Wunderground v.1.15,2013-02-19 17:19:00,
2013-02-19 11:24:00,33.9,9.7,30.36,SE,144,2.0,7.0,36,0.00,,,0.00,Wunderground v.1.15,2013-02-19 17:24:00,
2013-02-19 11:29:00,33.8,9.0,30.37,NE,36,2.0,9.0,35,0.00,,,0.00,Wunderground v.1.15,2013-02-19 17:29:00,
2013-02-19 11:34:00,33.8,9.6,30.36,SW,234,1.0,7.0,36,0.00,,,0.00,Wunderground v.1.15,2013-02-19 17:34:00,
2013-02-19 11:39:00,34.3,10.1,30.36,WNW,284,4.0,11.0,36,0.00,,,0.00,Wunderground v.1.15,2013-02-19 17:39:00,
2013-02-19 11:44:00,34.4,10.2,30.36,West,271,2.0,6.0,36,0.00,,,0.00,Wunderground v.1.15,2013-02-19 17:44:00,
2013-02-19 11:49:00,34.3,8.8,30.36,WNW,285,1.0,6.0,34,0.00,,,0.00,Wunderground v.1.15,2013-02-19 17:49:00,
2013-02-19 11:54:00,34.6,9.1,30.37,West,276,3.0,6.0,34,0.00,,,0.00,Wunderground v.1.15,2013-02-19 17:54:00,
2013-02-19 11:59:00,34.9,8.7,30.37,West,259,0.0,6.0,33,0.00,,,0.00,Wunderground v.1.15,2013-02-19 17:59:00,
2013-02-19 12:04:00,34.7,8.5,30.36,NNW,330,1.0,5.0,33,0.00,,,0.00,Wunderground v.1.15,2013-02-19 18:04:00,
2013-02-19 12:09:00,35.0,8.1,30.37,North,360,2.0,7.0,32,0.00,,,0.00,Wunderground v.1.15,2013-02-19 18:09:00,
2013-02-19 12:14:00,35.3,8.3,30.36,North,355,3.0,9.0,32,0.00,,,0.00,Wunderground v.1.15,2013-02-19 18:14:00,
2013-02-19 12:19:00,35.5,8.5,30.36,NNW,345,2.0,9.0,32,0.00,,,0.00,Wunderground v.1.15,2013-02-19 18:19:00,
2013-02-19 12:24:00,35.9,8.9,30.36,SW,225,1.0,5.0,32,0.00,,,0.00,Wunderground v.1.15,2013-02-19 18:24:00,
2013-02-19 12:29:00,36.3,8.5,30.36,South,177,3.0,6.0,31,0.00,,,0.00,Wunderground v.1.15,2013-02-19 18:29:00,
2013-02-19 12:34:00,35.9,8.2,30.36,West,276,2.0,6.0,31,0.00,,,0.00,Wunderground v.1.15,2013-02-19 18:34:00,
2013-02-19 12:39:00,36.1,8.3,30.36,West,267,3.0,6.0,31,0.00,,,0.00,Wunderground v.1.15,2013-02-19 18:39:00,
2013-02-19 12:44:00,36.3,9.2,30.36,NNW,340,3.0,6.0,32,0.00,,,0.00,Wunderground v.1.15,2013-02-19 18:44:00,
2013-02-19 12:49:00,36.6,8.8,30.36,West,268,1.0,6.0,31,0.00,,,0.00,Wunderground v.1.15,2013-02-19 18:49:00,
2013-02-19 12:54:00,36.9,7.5,30.36,WNW,302,3.0,6.0,29,0.00,,,0.00,Wunderground v.1.15,2013-02-19 18:54:00,
2013-02-19 12:59:00,37.3,7.9,30.36,West,281,1.0,6.0,29,0.00,,,0.00,Wunderground v.1.15,2013-02-19 18:59:00,
2013-02-19 13:04:00,37.5,8.1,30.35,West,264,3.0,7.0,29,0.00,,,0.00,Wunderground v.1.15,2013-02-19 19:04:00,
2013-02-19 13:09:00,37.5,7.3,30.35,SW,223,3.0,9.0,28,0.00,,,0.00,Wunderground v.1.15,2013-02-19 19:09:00,
2013-02-19 13:14:00,37.5,6.5,30.35,NNW,329,3.0,4.0,27,0.00,,,0.00,Wunderground v.1.15,2013-02-19 19:14:00,
2013-02-19 13:19:00,37.5,6.5,30.35,SW,234,2.0,7.0,27,0.00,,,0.00,Wunderground v.1.15,2013-02-19 19:19:00,
2013-02-19 13:24:00,37.6,6.6,30.35,West,269,3.0,6.0,27,0.00,,,0.00,Wunderground v.1.15,2013-02-19 19:24:00,
2013-02-19 13:29:00,37.7,6.7,30.35,NW,309,2.0,7.0,27,0.00,,,0.00,Wunderground v.1.15,2013-02-19 19:29:00,
2013-02-19 13:34:00,38.1,7.0,30.35,WSW,246,1.0,6.0,27,0.00,,,0.00,Wunderground v.1.15,2013-02-19 19:34:00,
2013-02-19 13:39:00,38.4,7.3,30.34,West,262,1.0,6.0,27,0.00,,,0.00,Wunderground v.1.15,2013-02-19 19:39:00,
2013-02-19 13:44:00,38.4,5.6,30.34,NNW,328,0.0,6.0,25,0.00,,,0.00,Wunderground v.1.15,2013-02-19 19:44:00,
2013-02-19 13:49:00,38.7,5.8,30.34,ENE,67,3.0,6.0,25,0.00,,,0.00,Wunderground v.1.15,2013-02-19 19:49:00,
2013-02-19 13:54:00,38.5,5.7,30.34,WSW,239,3.0,8.0,25,0.00,,,0.00,Wunderground v.1.15,2013-02-19 19:54:00,
2013-02-19 13:59:00,38.5,5.7,30.34,NNE,30,2.0,8.0,25,0.00,,,0.00,Wunderground v.1.15,2013-02-19 19:59:00,
2013-02-19 14:04:00,38.8,5.9,30.34,NW,321,1.0,3.0,25,0.00,,,0.00,Wunderground v.1.15,2013-02-19 20:04:00,
2013-02-19 14:09:00,38.9,6.0,30.34,NE,44,2.0,6.0,25,0.00,,,0.00,Wunderground v.1.15,2013-02-19 20:09:00,
2013-02-19 14:14:00,38.7,5.8,30.34,NW,313,1.0,5.0,25,0.00,,,0.00,Wunderground v.1.15,2013-02-19 20:14:00,
2013-02-19 14:19:00,38.8,5.9,30.33,WNW,300,3.0,5.0,25,0.00,,,0.00,Wunderground v.1.15,2013-02-19 20:19:00,
2013-02-19 14:24:00,38.9,5.1,30.33,NNW,337,1.0,7.0,24,0.00,,,0.00,Wunderground v.1.15,2013-02-19 20:24:00,
2013-02-19 14:29:00,38.8,5.0,30.33,NNE,15,2.0,7.0,24,0.00,,,0.00,Wunderground v.1.15,2013-02-19 20:29:00,
2013-02-19 14:34:00,39.3,6.3,30.33,WNW,300,1.0,5.0,25,0.00,,,0.00,Wunderground v.1.15,2013-02-19 20:34:00,
2013-02-19 14:39:00,39.9,6.9,30.33,North,349,1.0,5.0,25,0.00,,,0.00,Wunderground v.1.15,2013-02-19 20:39:00,
2013-02-19 14:44:00,40.3,5.4,30.33,NW,314,1.0,5.0,23,0.00,,,0.00,Wunderground v.1.15,2013-02-19 20:44:00,
2013-02-19 14:49:00,39.9,5.0,30.33,WNW,285,1.0,5.0,23,0.00,,,0.00,Wunderground v.1.15,2013-02-19 20:49:00,
2013-02-19 14:54:00,39.8,4.9,30.33,SSW,213,2.0,5.0,23,0.00,,,0.00,Wunderground v.1.15,2013-02-19 20:54:00,
2013-02-19 14:59:00,39.9,4.1,30.33,NNE,25,1.0,5.0,22,0.00,,,0.00,Wunderground v.1.15,2013-02-19 20:59:00,
2013-02-19 15:04:00,39.9,5.0,30.33,West,281,2.0,6.0,23,0.00,,,0.00,Wunderground v.1.15,2013-02-19 21:04:00,
2013-02-19 15:09:00,39.7,3.9,30.33,NNW,327,4.0,6.0,22,0.00,,,0.00,Wunderground v.1.15,2013-02-19 21:09:00,
2013-02-19 15:14:00,39.7,3.9,30.33,West,271,1.0,4.0,22,0.00,,,0.00,Wunderground v.1.15,2013-02-19 21:14:00,
2013-02-19 15:19:00,39.6,2.8,30.33,North,360,1.0,6.0,21,0.00,,,0.00,Wunderground v.1.15,2013-02-19 21:19:00,
2013-02-19 15:24:00,39.3,3.6,30.33,North,9,2.0,6.0,22,0.00,,,0.00,Wunderground v.1.15,2013-02-19 21:24:00,
2013-02-19 15:29:00,39.1,3.4,30.33,NW,326,1.0,6.0,22,0.00,,,0.00,Wunderground v.1.15,2013-02-19 21:29:00,
2013-02-19 15:34:00,39.2,4.4,30.32,West,262,2.0,6.0,23,0.00,,,0.00,Wunderground v.1.15,2013-02-19 21:34:00,
2013-02-19 15:39:00,39.6,3.8,30.33,West,263,1.0,6.0,22,0.00,,,0.00,Wunderground v.1.15,2013-02-19 21:39:00,
2013-02-19 15:44:00,40.0,3.1,30.32,SW,229,2.0,4.0,21,0.00,,,0.00,Wunderground v.1.15,2013-02-19 21:44:00,
2013-02-19 15:49:00,39.9,4.1,30.32,North,360,2.0,5.0,22,0.00,,,0.00,Wunderground v.1.15,2013-02-19 21:49:00,
2013-02-19 15:54:00,39.7,2.9,30.32,West,274,3.0,4.0,21,0.00,,,0.00,Wunderground v.1.15,2013-02-19 21:54:00,
2013-02-19 15:59:00,39.4,3.6,30.32,NE,37,1.0,5.0,22,0.00,,,0.00,Wunderground v.1.15,2013-02-19 21:59:00,
2013-02-19 16:04:00,39.2,2.5,30.33,NNW,329,2.0,4.0,21,0.00,,,0.00,Wunderground v.1.15,2013-02-19 22:04:00,
2013-02-19 16:09:00,38.9,2.2,30.33,NNW,346,3.0,4.0,21,0.00,,,0.00,Wunderground v.1.15,2013-02-19 22:09:00,
2013-02-19 16:14:00,38.3,2.7,30.32,NNE,13,1.0,5.0,22,0.00,,,0.00,Wunderground v.1.15,2013-02-19 22:14:00,
2013-02-19 16:19:00,37.9,2.4,30.32,NNW,338,2.0,6.0,22,0.00,,,0.00,Wunderground v.1.15,2013-02-19 22:19:00,
2013-02-19 16:24:00,37.7,2.2,30.32,West,263,3.0,6.0,22,0.00,,,0.00,Wunderground v.1.15,2013-02-19 22:24:00,
2013-02-19 16:29:00,37.7,3.2,30.32,WSW,256,1.0,6.0,23,0.00,,,0.00,Wunderground v.1.15,2013-02-19 22:29:00,
2013-02-19 16:34:00,37.8,2.3,30.32,West,271,1.0,2.0,22,0.00,,,0.00,Wunderground v.1.15,2013-02-19 22:34:00,
2013-02-19 16:39:00,37.9,2.4,30.31,North,355,1.0,4.0,22,0.00,,,0.00,Wunderground v.1.15,2013-02-19 22:39:00,
2013-02-19 16:44:00,37.7,2.2,30.31,WSW,256,1.0,5.0,22,0.00,,,0.00,Wunderground v.1.15,2013-02-19 22:44:00,
2013-02-19 16:49:00,37.5,3.0,30.31,NNW,341,3.0,5.0,23,0.00,,,0.00,Wunderground v.1.15,2013-02-19 22:49:00,
2013-02-19 16:54:00,37.3,2.8,30.31,ESE,103,3.0,5.0,23,0.00,,,0.00,Wunderground v.1.15,2013-02-19 22:54:00,
2013-02-19 16:59:00,37.2,1.8,30.31,WSW,254,1.0,5.0,22,0.00,,,0.00,Wunderground v.1.15,2013-02-19 22:59:00,
2013-02-19 17:04:00,37.1,2.7,30.31,NNW,328,3.0,4.0,23,0.00,,,0.00,Wunderground v.1.15,2013-02-19 23:04:00,
2013-02-19 17:09:00,36.5,1.2,30.31,NNE,12,1.0,5.0,22,0.00,,,0.00,Wunderground v.1.15,2013-02-19 23:09:00,
2013-02-19 17:14:00,36.2,1.9,30.30,NNE,16,1.0,4.0,23,0.00,,,0.00,Wunderground v.1.15,2013-02-19 23:14:00,
2013-02-19 17:19:00,36.1,2.7,30.31,NNW,335,1.0,4.0,24,0.00,,,0.00,Wunderground v.1.15,2013-02-19 23:19:00,
2013-02-19 17:24:00,35.8,1.5,30.31,WNW,301,0.0,4.0,23,0.00,,,0.00,Wunderground v.1.15,2013-02-19 23:24:00,
2013-02-19 17:29:00,35.5,0.3,30.30,NE,42,1.0,4.0,22,0.00,,,0.00,Wunderground v.1.15,2013-02-19 23:29:00,
2013-02-19 17:34:00,35.1,0.9,30.30,SW,217,3.0,4.0,23,0.00,,,0.00,Wunderground v.1.15,2013-02-19 23:34:00,
2013-02-19 17:39:00,34.6,0.5,30.31,NNW,348,1.0,4.0,23,0.00,,,0.00,Wunderground v.1.15,2013-02-19 23:39:00,
2013-02-19 17:44:00,34.3,1.2,30.31,North,9,1.0,3.0,24,0.00,,,0.00,Wunderground v.1.15,2013-02-19 23:44:00,
2013-02-19 17:49:00,34.0,0.9,30.30,North,9,1.0,3.0,24,0.00,,,0.00,Wunderground v.1.15,2013-02-19 23:49:00,
2013-02-19 17:54:00,33.8,1.6,30.31,North,9,1.0,2.0,25,0.00,,,0.00,Wunderground v.1.15,2013-02-19 23:54:00,
2013-02-19 17:59:00,33.5,1.4,30.31,North,11,1.0,3.0,25,0.00,,,0.00,Wunderground v.1.15,2013-02-19 23:59:00,
2013-02-19 18:04:00,33.2,2.0,30.30,North,11,1.0,2.0,26,0.00,,,0.00,Wunderground v.1.15,2013-02-20 00:04:00,
2013-02-19 18:09:00,32.9,1.7,30.30,North,11,2.0,2.0,26,0.00,,,0.00,Wunderground v.1.15,2013-02-20 00:09:00,
2013-02-19 18:14:00,32.6,2.3,30.30,North,11,1.0,1.0,27,0.00,,,0.00,Wunderground v.1.15,2013-02-20 00:14:00,
2013-02-19 18:19:00,32.4,2.1,30.30,North,11,1.0,3.0,27,0.00,,,0.00,Wunderground v.1.15,2013-02-20 00:19:00,
2013-02-19 18:24:00,32.2,2.7,30.30,North,9,0.0,1.0,28,0.00,,,0.00,Wunderground v.1.15,2013-02-20 00:24:00,
2013-02-19 18:29:00,32.0,3.3,30.31,North,9,1.0,2.0,29,0.00,,,0.00,Wunderground v.1.15,2013-02-20 00:29:00,
2013-02-19 18:34:00,31.9,3.2,30.32,North,9,0.0,2.0,29,0.00,,,0.00,Wunderground v.1.15,2013-02-20 00:34:00,
2013-02-19 18:39:00,31.7,3.0,30.32,North,9,0.0,2.0,29,0.00,,,0.00,Wunderground v.1.15,2013-02-20 00:39:00,
2013-02-19 18:44:00,31.5,2.8,30.32,North,9,0.0,1.0,29,0.00,,,0.00,Wunderground v.1.15,2013-02-20 00:44:00,
2013-02-19 18:49:00,31.4,3.5,30.33,North,9,0.0,1.0,30,0.00,,,0.00,Wunderground v.1.15,2013-02-20 00:49:00,
2013-02-19 18:54:00,31.2,3.3,30.33,North,9,0.0,1.0,30,0.00,,,0.00,Wunderground v.1.15,2013-02-20 00:54:00,
2013-02-19 18:59:00,31.0,3.1,30.32,North,9,0.0,1.0,30,0.00,,,0.00,Wunderground v.1.15,2013-02-20 00:59:00,
2013-02-19 19:04:00,30.7,3.6,30.33,North,9,0.0,1.0,31,0.00,,,0.00,Wunderground v.1.15,2013-02-20 01:04:00,
2013-02-19 19:09:00,30.6,3.5,30.33,North,9,1.0,1.0,31,0.00,,,0.00,Wunderground v.1.15,2013-02-20 01:09:00,
2013-02-19 19:14:00,30.4,3.3,30.33,North,9,1.0,3.0,31,0.00,,,0.00,Wunderground v.1.15,2013-02-20 01:14:00,
2013-02-19 19:19:00,30.3,3.2,30.33,North,9,1.0,4.0,31,0.00,,,0.00,Wunderground v.1.15,2013-02-20 01:19:00,
2013-02-19 19:24:00,30.2,3.1,30.33,North,9,1.0,2.0,31,0.00,,,0.00,Wunderground v.1.15,2013-02-20 01:24:00,
2013-02-19 19:29:00,30.0,3.0,30.33,North,9,2.0,3.0,31,0.00,,,0.00,Wunderground v.1.15,2013-02-20 01:29:00,
2013-02-19 19:34:00,29.9,2.9,30.33,NNE,17,1.0,4.0,31,0.00,,,0.00,Wunderground v.1.15,2013-02-20 01:34:00,
2013-02-19 19:39:00,29.7,3.4,30.33,NNE,17,1.0,5.0,32,0.00,,,0.00,Wunderground v.1.15,2013-02-20 01:39:00,
2013-02-19 19:44:00,29.5,3.2,30.33,NNE,17,1.0,4.0,32,0.00,,,0.00,Wunderground v.1.15,2013-02-20 01:44:00,
2013-02-19 19:49:00,29.3,3.7,30.33,NNE,17,0.0,4.0,33,0.00,,,0.00,Wunderground v.1.15,2013-02-20 01:49:00,
2013-02-19 19:54:00,29.2,3.6,30.34,NNE,17,1.0,2.0,33,0.00,,,0.00,Wunderground v.1.15,2013-02-20 01:54:00,
2013-02-19 19:59:00,29.0,4.1,30.33,NNE,17,2.0,2.0,34,0.00,,,0.00,Wunderground v.1.15,2013-02-20 01:59:00,
2013-02-19 20:04:00,28.9,3.4,30.33,NNE,17,2.0,2.0,33,0.00,,,0.00,Wunderground v.1.15,2013-02-20 02:04:00,
2013-02-19 20:09:00,28.7,3.8,30.34,NNE,17,1.0,2.0,34,0.00,,,0.00,Wunderground v.1.15,2013-02-20 02:09:00,
2013-02-19 20:14:00,28.5,3.6,30.33,NNE,17,1.0,2.0,34,0.00,,,0.00,Wunderground v.1.15,2013-02-20 02:14:00,
2013-02-19 20:19:00,28.4,4.2,30.34,NNE,17,0.0,2.0,35,0.00,,,0.00,Wunderground v.1.15,2013-02-20 02:19:00,
2013-02-19 20:24:00,28.3,4.1,30.34,NNE,17,2.0,3.0,35,0.00,,,0.00,Wunderground v.1.15,2013-02-20 02:24:00,
2013-02-19 20:29:00,28.1,3.9,30.34,NNE,17,3.0,3.0,35,0.00,,,0.00,Wunderground v.1.15,2013-02-20 02:29:00,
2013-02-19 20:34:00,28.0,4.4,30.35,NNE,17,2.0,2.0,36,0.00,,,0.00,Wunderground v.1.15,2013-02-20 02:34:00,
2013-02-19 20:39:00,27.8,4.9,30.35,NNE,17,1.0,2.0,37,0.00,,,0.00,Wunderground v.1.15,2013-02-20 02:39:00,
2013-02-19 20:44:00,27.7,4.8,30.35,NNE,17,2.0,2.0,37,0.00,,,0.00,Wunderground v.1.15,2013-02-20 02:44:00,
2013-02-19 20:49:00,27.6,5.3,30.35,NNE,17,1.0,2.0,38,0.00,,,0.00,Wunderground v.1.15,2013-02-20 02:49:00,
2013-02-19 20:54:00,27.5,5.2,30.36,NNE,17,1.0,3.0,38,0.00,,,0.00,Wunderground v.1.15,2013-02-20 02:54:00,
2013-02-19 20:59:00,27.3,5.0,30.36,NE,38,3.0,5.0,38,0.00,,,0.00,Wunderground v.1.15,2013-02-20 02:59:00,
2013-02-19 21:04:00,27.2,4.9,30.34,NE,38,2.0,3.0,38,0.00,,,0.00,Wunderground v.1.15,2013-02-20 03:04:00,
2013-02-19 21:09:00,27.0,4.7,30.34,NE,38,2.0,5.0,38,0.00,,,0.00,Wunderground v.1.15,2013-02-20 03:09:00,
2013-02-19 21:14:00,26.8,5.1,30.33,NE,35,3.0,4.0,39,0.00,,,0.00,Wunderground v.1.15,2013-02-20 03:14:00,
2013-02-19 21:19:00,26.7,5.6,30.33,NE,35,2.0,4.0,40,0.00,,,0.00,Wunderground v.1.15,2013-02-20 03:19:00,
2013-02-19 21:24:00,26.5,5.4,30.33,NE,39,3.0,5.0,40,0.00,,,0.00,Wunderground v.1.15,2013-02-20 03:24:00,
2013-02-19 21:29:00,26.4,5.3,30.33,NNE,31,1.0,6.0,40,0.00,,,0.00,Wunderground v.1.15,2013-02-20 03:29:00,
2013-02-19 21:34:00,26.2,5.1,30.34,NNE,32,2.0,4.0,40,0.00,,,0.00,Wunderground v.1.15,2013-02-20 03:34:00,
2013-02-19 21:39:00,26.1,5.6,30.34,NNE,32,1.0,4.0,41,0.00,,,0.00,Wunderground v.1.15,2013-02-20 03:39:00,
2013-02-19 21:44:00,26.0,4.9,30.34,NNE,32,1.0,3.0,40,0.00,,,0.00,Wunderground v.1.15,2013-02-20 03:44:00,
2013-02-19 21:49:00,25.9,5.4,30.34,NNE,32,3.0,4.0,41,0.00,,,0.00,Wunderground v.1.15,2013-02-20 03:49:00,
2013-02-19 21:54:00,25.8,5.3,30.35,NNE,32,3.0,4.0,41,0.00,,,0.00,Wunderground v.1.15,2013-02-20 03:54:00,
2013-02-19 21:59:00,25.7,5.7,30.36,NNE,32,0.0,4.0,42,0.00,,,0.00,Wunderground v.1.15,2013-02-20 03:59:00,
2013-02-19 22:04:00,25.6,5.1,30.36,NNE,32,0.0,2.0,41,0.00,,,0.00,Wunderground v.1.15,2013-02-20 04:04:00,
2013-02-19 22:09:00,25.6,5.6,30.37,NNE,32,0.0,2.0,42,0.00,,,0.00,Wunderground v.1.15,2013-02-20 04:09:00,
2013-02-19 22:15:00,25.5,5.6,30.37,NNE,32,1.0,2.0,42,0.00,,,0.00,Wunderground v.1.15,2013-02-20 04:15:00,
2013-02-19 22:20:00,25.4,5.5,30.37,NNE,32,1.0,1.0,42,0.00,,,0.00,Wunderground v.1.15,2013-02-20 04:20:00,
2013-02-19 22:25:00,25.3,5.4,30.37,NNE,32,0.0,1.0,42,0.00,,,0.00,Wunderground v.1.15,2013-02-20 04:25:00,
2013-02-19 22:30:00,25.3,6.4,30.38,NNE,32,0.0,1.0,44,0.00,,,0.00,Wunderground v.1.15,2013-02-20 04:30:00,
2013-02-19 22:34:00,25.2,5.8,30.38,NNE,32,1.0,2.0,43,0.00,,,0.00,Wunderground v.1.15,2013-02-20 04:34:00,
2013-02-19 22:40:00,25.2,5.8,30.38,NNE,32,2.0,3.0,43,0.00,,,0.00,Wunderground v.1.15,2013-02-20 04:40:00,
2013-02-19 22:45:00,25.1,5.7,30.37,NNE,32,1.0,3.0,43,0.00,,,0.00,Wunderground v.1.15,2013-02-20 04:45:00,
2013-02-19 22:50:00,24.9,5.5,30.37,NNE,32,2.0,2.0,43,0.00,,,0.00,Wunderground v.1.15,2013-02-20 04:50:00,
2013-02-19 22:55:00,24.8,5.9,30.38,NNE,32,1.0,3.0,44,0.00,,,0.00,Wunderground v.1.15,2013-02-20 04:55:00,
2013-02-19 23:00:00,24.7,5.3,30.38,NNE,32,1.0,1.0,43,0.00,,,0.00,Wunderground v.1.15,2013-02-20 05:00:00,
2013-02-19 23:05:00,24.6,5.8,30.38,NNE,32,0.0,3.0,44,0.00,,,0.00,Wunderground v.1.15,2013-02-20 05:05:00,
2013-02-19 23:10:00,24.5,5.7,30.38,NNE,32,1.0,3.0,44,0.00,,,0.00,Wunderground v.1.15,2013-02-20 05:10:00,
2013-02-19 23:15:00,24.4,5.6,30.38,NNE,32,1.0,3.0,44,0.00,,,0.00,Wunderground v.1.15,2013-02-20 05:15:00,
2013-02-19 23:20:00,24.3,6.0,30.38,NNE,32,2.0,2.0,45,0.00,,,0.00,Wunderground v.1.15,2013-02-20 05:20:00,
2013-02-19 23:26:00,24.2,5.4,30.38,NNE,32,2.0,3.0,44,0.00,,,0.00,Wunderground v.1.15,2013-02-20 05:26:00,
2013-02-19 23:31:00,24.1,5.3,30.38,NNE,32,1.0,2.0,44,0.00,,,0.00,Wunderground v.1.15,2013-02-20 05:31:00,
2013-02-19 23:36:00,24.0,5.7,30.38,NNE,32,1.0,3.0,45,0.00,,,0.00,Wunderground v.1.15,2013-02-20 05:36:00,
2013-02-19 23:41:00,23.9,5.1,30.39,NNE,32,1.0,3.0,44,0.00,,,0.00,Wunderground v.1.15,2013-02-20 05:41:00,
2013-02-19 23:46:00,23.9,5.1,30.39,NNE,32,0.0,3.0,44,0.00,,,0.00,Wunderground v.1.15,2013-02-20 05:46:00,
2013-02-19 23:51:00,23.8,5.5,30.39,NNE,32,0.0,2.0,45,0.00,,,0.00,Wunderground v.1.15,2013-02-20 05:51:00,
2013-02-19 23:56:00,23.7,4.9,30.39,NNE,32,2.0,4.0,44,0.00,,,0.00,Wunderground v.1.15,2013-02-20 05:56:00,